| time (UTC) | temp F | wind direction | speed MPH | gust MPH | rain 1hr in | rain 24hr in | rain mn in | humidity % | barometer mb |
| 20260904113204 | 60 | 284 | 1.0 | 5.0 | 0.00 | 0.02 | 0.02 | 94 | 1012.9 |
| 20260904112705 | 60 | 288 | 1.0 | 5.0 | 0.00 | 0.02 | 0.02 | 94 | 1012.9 |
| 20260904112204 | 60 | 329 | 2.0 | 6.0 | 0.00 | 0.02 | 0.02 | 94 | 1012.8 |
| 20260904111704 | 60 | 330 | 2.0 | 7.0 | 0.00 | 0.02 | 0.02 | 94 | 1012.8 |
| 20260904110704 | 61 | 327 | 3.0 | 7.0 | 0.00 | 0.02 | 0.02 | 94 | 1012.8 |
| 20260904110204 | 61 | 301 | 3.0 | 7.0 | 0.00 | 0.02 | 0.02 | 94 | 1012.7 |
| 20260904104204 | 62 | 295 | 1.0 | 2.0 | 0.00 | 0.02 | 0.02 | 95 | 1012.6 |
| 20260904103704 | 62 | 288 | 0.0 | 0.0 | 0.00 | 0.02 | 0.02 | 95 | 1012.6 |
| 20260904103205 | 62 | 296 | 0.0 | 0.0 | 0.00 | 0.02 | 0.02 | 94 | 1012.6 |
| 20260904102204 | 63 | 295 | 0.0 | 0.0 | 0.00 | 0.02 | 0.02 | 95 | 1012.5 |
| 20260904101704 | 63 | 252 | 0.0 | 0.0 | 0.00 | 0.02 | 0.02 | 94 | 1012.6 |
| 20260904101204 | 63 | 252 | 0.0 | 0.0 | 0.00 | 0.02 | 0.02 | 94 | 1012.6 |
| 20260904100704 | 63 | 252 | 0.0 | 0.0 | 0.00 | 0.02 | 0.02 | 94 | 1012.6 |
| 20260904100204 | 64 | 252 | 0.0 | 0.0 | 0.00 | 0.02 | 0.02 | 95 | 1012.5 |
| 20260904095704 | 64 | 252 | 0.0 | 0.0 | 0.00 | 0.02 | 0.02 | 95 | 1012.6 |
| 20260904095204 | 64 | 76 | 0.0 | 0.0 | 0.00 | 0.02 | 0.02 | 95 | 1012.5 |
| 20260904094705 | 63 | 76 | 0.0 | 0.0 | 0.00 | 0.02 | 0.02 | 95 | 1012.5 |
| 20260904094204 | 63 | 76 | 0.0 | 0.0 | 0.00 | 0.02 | 0.02 | 94 | 1012.5 |
| 20260904093705 | 63 | 76 | 0.0 | 0.0 | 0.00 | 0.02 | 0.02 | 94 | 1012.5 |
| 20260904093204 | 63 | 76 | 0.0 | 0.0 | 0.00 | 0.02 | 0.02 | 94 | 1012.4 |
| 20260904092704 | 63 | 76 | 0.0 | 0.0 | 0.00 | 0.02 | 0.02 | 94 | 1012.5 |
| 20260904092205 | 63 | 76 | 0.0 | 0.0 | 0.00 | 0.02 | 0.02 | 94 | 1012.5 |
| 20260904091704 | 63 | 76 | 0.0 | 0.0 | 0.00 | 0.02 | 0.02 | 94 | 1012.4 |
| 20260904091204 | 63 | 76 | 0.0 | 0.0 | 0.00 | 0.02 | 0.02 | 94 | 1012.4 |
| 20260904090204 | 63 | 84 | 0.0 | 0.0 | 0.00 | 0.02 | 0.02 | 94 | 1012.5 |
| 20260904085205 | 63 | 59 | 0.0 | 0.0 | 0.01 | 0.02 | 0.02 | 94 | 1012.5 |
| 20260904084704 | 63 | 47 | 0.0 | 0.0 | 0.01 | 0.02 | 0.02 | 94 | 1012.5 |
| 20260904084204 | 63 | 90 | 0.0 | 0.0 | 0.01 | 0.02 | 0.02 | 94 | 1012.6 |
| 20260904083204 | 63 | 163 | 0.0 | 0.0 | 0.02 | 0.02 | 0.02 | 94 | 1012.6 |
| 20260904082204 | 63 | 163 | 0.0 | 0.0 | 0.02 | 0.02 | 0.02 | 94 | 1012.6 |
| 20260904081705 | 63 | 163 | 0.0 | 0.0 | 0.02 | 0.02 | 0.02 | 94 | 1012.7 |
| 20260904081204 | 63 | 163 | 0.0 | 2.0 | 0.02 | 0.02 | 0.02 | 94 | 1012.8 |
| 20260904080705 | 63 | 163 | 0.0 | 2.0 | 0.02 | 0.02 | 0.02 | 94 | 1012.8 |
| 20260904080204 | 63 | 163 | 0.0 | 2.0 | 0.02 | 0.02 | 0.02 | 94 | 1012.8 |
| 20260904075704 | 63 | 163 | 0.0 | 2.0 | 0.01 | 0.01 | 0.01 | 94 | 1012.8 |
| 20260904074704 | 63 | 163 | 0.0 | 1.0 | 0.01 | 0.01 | 0.01 | 94 | 1012.8 |
| 20260904074205 | 63 | 163 | 0.0 | 3.0 | 0.01 | 0.01 | 0.01 | 94 | 1012.7 |
| 20260904073705 | 63 | 163 | 0.0 | 3.0 | 0.00 | 0.00 | 0.00 | 94 | 1012.6 |
| 20260904073204 | 63 | 163 | 0.0 | 3.0 | 0.00 | 0.00 | 0.00 | 94 | 1012.7 |
| 20260904072204 | 63 | 149 | 0.0 | 2.0 | 0.00 | 0.00 | 0.00 | 94 | 1012.7 |
| 20260904071705 | 63 | 149 | 0.0 | 3.0 | 0.00 | 0.00 | 0.00 | 94 | 1012.7 |
| 20260904071204 | 63 | 149 | 1.0 | 3.0 | 0.00 | 0.00 | 0.00 | 93 | 1012.6 |
| 20260904070704 | 63 | 149 | 1.0 | 2.0 | 0.00 | 0.00 | 0.00 | 93 | 1012.6 |
| 20260904070205 | 63 | 149 | 0.0 | 2.0 | 0.00 | 0.00 | 0.00 | 93 | 1012.6 |
| 20260904065704 | 63 | 149 | 0.0 | 2.0 | 0.00 | 0.00 | 0.00 | 93 | 1012.6 |
| 20260904065204 | 63 | 120 | 0.0 | 0.0 | 0.00 | 0.00 | 0.00 | 93 | 1012.7 |
| 20260904064704 | 63 | 120 | 0.0 | 0.0 | 0.00 | 0.00 | 0.00 | 93 | 1012.6 |
| 20260904064204 | 63 | 120 | 0.0 | 0.0 | 0.00 | 0.00 | 0.00 | 93 | 1012.7 |
| 20260904063704 | 63 | 120 | 0.0 | 0.0 | 0.00 | 0.00 | 0.00 | 93 | 1012.7 |
| 20260904062704 | 63 | 120 | 0.0 | 4.0 | 0.00 | 0.00 | 0.00 | 93 | 1012.8 |
| 20260904062205 | 63 | 120 | 1.0 | 4.0 | 0.00 | 0.00 | 0.00 | 93 | 1012.7 |
| 20260904061205 | 64 | 134 | 1.0 | 4.0 | 0.00 | 0.00 | 0.00 | 93 | 1012.7 |
| 20260904060704 | 64 | 140 | 0.0 | 4.0 | 0.00 | 0.00 | 0.00 | 93 | 1012.8 |
| 20260904060205 | 64 | 196 | 1.0 | 4.0 | 0.00 | 0.00 | 0.00 | 93 | 1012.9 |
| 20260904055704 | 64 | 196 | 2.0 | 6.0 | 0.00 | 0.00 | 0.00 | 93 | 1012.9 |
| 20260904054205 | 64 | 188 | 1.0 | 3.0 | 0.00 | 0.00 | 0.00 | 93 | 1013.0 |
| 20260904053205 | 64 | 168 | 1.0 | 4.0 | 0.00 | 0.00 | 0.00 | 93 | 1013.1 |
| 20260904052704 | 64 | 200 | 0.0 | 4.0 | 0.00 | 0.00 | 0.00 | 93 | 1013.2 |
| 20260904052204 | 64 | 200 | 1.0 | 4.0 | 0.00 | 0.00 | 0.00 | 92 | 1013.2 |
| 20260904051705 | 64 | 217 | 1.0 | 4.0 | 0.00 | 0.00 | 0.00 | 92 | 1013.3 |
| 20260904051204 | 64 | 217 | 1.0 | 5.0 | 0.00 | 0.00 | 0.00 | 92 | 1013.3 |
| 20260904045704 | 64 | 195 | 1.0 | 5.0 | 0.00 | 0.00 | 0.00 | 92 | 1013.4 |
| 20260904045204 | 64 | 190 | 2.0 | 5.0 | 0.00 | 0.00 | 0.00 | 92 | 1013.5 |
| 20260904044705 | 64 | 200 | 2.0 | 5.0 | 0.00 | 0.00 | 0.00 | 92 | 1013.4 |
| 20260904044204 | 64 | 200 | 2.0 | 5.0 | 0.00 | 0.00 | 0.00 | 92 | 1013.5 |
| 20260904043204 | 64 | 188 | 3.0 | 5.0 | 0.00 | 0.00 | 0.00 | 92 | 1013.4 |
| 20260904042704 | 64 | 188 | 3.0 | 5.0 | 0.00 | 0.00 | 0.00 | 92 | 1013.4 |
| 20260904042204 | 64 | 181 | 2.0 | 5.0 | 0.00 | 0.00 | 0.00 | 92 | 1013.4 |
| 20260904041704 | 64 | 200 | 3.0 | 5.0 | 0.00 | 0.00 | 0.00 | 92 | 1013.3 |
| 20260904041204 | 64 | 225 | 3.0 | 5.0 | 0.00 | 0.00 | 0.00 | 92 | 1013.4 |
| 20260904040704 | 64 | 229 | 3.0 | 5.0 | 0.00 | 0.00 | 0.00 | 92 | 1013.5 |
| 20260904040204 | 64 | 193 | 3.0 | 4.0 | 0.00 | 0.00 | 0.00 | 91 | 1013.2 |
| 20260904035704 | 64 | 196 | 2.0 | 5.0 | 0.00 | 0.00 | 0.00 | 91 | 1013.1 |
| 20260904035204 | 64 | 224 | 2.0 | 6.0 | 0.00 | 0.00 | 0.00 | 92 | 1013.2 |
| 20260904034704 | 64 | 223 | 2.0 | 6.0 | 0.00 | 0.00 | 0.00 | 92 | 1013.0 |
| 20260904034204 | 64 | 227 | 3.0 | 8.0 | 0.00 | 0.00 | 0.00 | 91 | 1013.0 |
| 20260904033704 | 64 | 212 | 4.0 | 8.0 | 0.00 | 0.00 | 0.00 | 91 | 1013.1 |
| 20260904033204 | 64 | 198 | 5.0 | 9.0 | 0.00 | 0.00 | 0.00 | 91 | 1012.9 |
| 20260904032704 | 64 | 204 | 5.0 | 9.0 | 0.00 | 0.00 | 0.00 | 91 | 1013.0 |
| 20260904032205 | 64 | 200 | 5.0 | 9.0 | 0.00 | 0.00 | 0.00 | 91 | 1013.0 |
| 20260904031705 | 65 | 194 | 4.0 | 8.0 | 0.00 | 0.00 | 0.00 | 91 | 1012.9 |
| 20260904031205 | 65 | 188 | 4.0 | 8.0 | 0.00 | 0.00 | 0.00 | 91 | 1012.9 |
| 20260904030704 | 65 | 189 | 3.0 | 6.0 | 0.00 | 0.00 | 0.00 | 90 | 1012.9 |
| 20260904025704 | 65 | 214 | 3.0 | 8.0 | 0.00 | 0.00 | 0.00 | 90 | 1012.9 |
| 20260904025204 | 64 | 215 | 4.0 | 8.0 | 0.00 | 0.00 | 0.00 | 90 | 1013.0 |
| 20260904024704 | 65 | 224 | 4.0 | 8.0 | 0.00 | 0.00 | 0.00 | 90 | 1013.0 |
| 20260904024204 | 64 | 232 | 4.0 | 8.0 | 0.00 | 0.00 | 0.00 | 90 | 1012.9 |
| 20260904023704 | 64 | 230 | 3.0 | 9.0 | 0.00 | 0.00 | 0.00 | 89 | 1012.9 |
| 20260904023205 | 65 | 184 | 4.0 | 9.0 | 0.00 | 0.00 | 0.00 | 89 | 1013.0 |
| 20260904022705 | 65 | 194 | 4.0 | 9.0 | 0.00 | 0.00 | 0.00 | 89 | 1013.0 |
| 20260904022204 | 65 | 209 | 4.0 | 10.0 | 0.00 | 0.00 | 0.00 | 88 | 1013.0 |
| 20260904021704 | 65 | 210 | 5.0 | 10.0 | 0.00 | 0.00 | 0.00 | 88 | 1012.9 |
| 20260904021204 | 65 | 200 | 5.0 | 10.0 | 0.00 | 0.00 | 0.00 | 88 | 1013.0 |
| 20260904020704 | 65 | 200 | 5.0 | 11.0 | 0.00 | 0.00 | 0.00 | 87 | 1013.0 |
| 20260904020205 | 66 | 196 | 5.0 | 11.0 | 0.00 | 0.00 | 0.00 | 87 | 1013.1 |
| 20260904015704 | 66 | 200 | 6.0 | 12.0 | 0.00 | 0.00 | 0.00 | 86 | 1013.1 |
| 20260904015204 | 66 | 188 | 6.0 | 12.0 | 0.00 | 0.00 | 0.00 | 86 | 1013.1 |
| 20260904014705 | 67 | 197 | 6.0 | 12.0 | 0.00 | 0.00 | 0.00 | 85 | 1013.2 |
| 20260904014204 | 67 | 217 | 5.0 | 9.0 | 0.00 | 0.00 | 0.00 | 85 | 1013.2 |
| 20260904013704 | 67 | 200 | 5.0 | 11.0 | 0.00 | 0.00 | 0.00 | 85 | 1013.2 |
| 20260904013204 | 67 | 176 | 5.0 | 11.0 | 0.00 | 0.00 | 0.00 | 85 | 1013.2 |
| 20260904012705 | 67 | 223 | 6.0 | 11.0 | 0.00 | 0.00 | 0.00 | 85 | 1013.2 |
| 20260904012205 | 67 | 192 | 6.0 | 9.0 | 0.00 | 0.00 | 0.00 | 84 | 1013.2 |
| 20260904011205 | 67 | 220 | 5.0 | 10.0 | 0.00 | 0.00 | 0.00 | 84 | 1013.2 |
| 20260904010204 | 67 | 203 | 5.0 | 12.0 | 0.00 | 0.00 | 0.00 | 84 | 1013.3 |
| 20260904005704 | 67 | 216 | 5.0 | 12.0 | 0.00 | 0.00 | 0.00 | 83 | 1013.4 |
| 20260904005204 | 67 | 173 | 5.0 | 12.0 | 0.00 | 0.00 | 0.00 | 84 | 1013.3 |
| 20260904004705 | 67 | 182 | 5.0 | 12.0 | 0.00 | 0.00 | 0.00 | 84 | 1013.3 |
| 20260904004204 | 67 | 179 | 6.0 | 14.0 | 0.00 | 0.00 | 0.00 | 84 | 1013.3 |
| 20260904003704 | 67 | 244 | 7.0 | 14.0 | 0.00 | 0.00 | 0.00 | 84 | 1013.3 |
| 20260904003204 | 67 | 197 | 7.0 | 14.0 | 0.00 | 0.00 | 0.00 | 83 | 1013.3 |
| 20260904002704 | 67 | 202 | 7.0 | 13.0 | 0.00 | 0.00 | 0.00 | 83 | 1013.4 |
| 20260904002204 | 68 | 216 | 7.0 | 16.0 | 0.00 | 0.00 | 0.00 | 83 | 1013.4 |
| 20260904000705 | 68 | 216 | 7.0 | 12.0 | 0.00 | 0.00 | 0.00 | 81 | 1013.5 |
| 20260904000204 | 69 | 196 | 6.0 | 12.0 | 0.00 | 0.00 | 0.00 | 81 | 1013.4 |
| 20260903235705 | 69 | 181 | 6.0 | 12.0 | 0.00 | 0.00 | 0.00 | 81 | 1013.4 |
| 20260903235205 | 69 | 173 | 7.0 | 12.0 | 0.00 | 0.00 | 0.00 | 81 | 1013.6 |
| 20260903233705 | 68 | 202 | 7.0 | 16.0 | 0.00 | 0.00 | 0.00 | 81 | 1013.7 |
| 20260903233205 | 69 | 200 | 6.0 | 13.0 | 0.00 | 0.00 | 0.00 | 81 | 1013.7 |
| 20260903232704 | 69 | 211 | 6.0 | 14.0 | 0.00 | 0.00 | 0.00 | 81 | 1013.7 |
| 20260903231704 | 68 | 205 | 8.0 | 14.0 | 0.00 | 0.00 | 0.00 | 81 | 1013.7 |
| 20260903231204 | 69 | 223 | 7.0 | 13.0 | 0.00 | 0.00 | 0.00 | 80 | 1013.7 |
| 20260903230704 | 69 | 229 | 7.0 | 13.0 | 0.00 | 0.00 | 0.00 | 79 | 1013.9 |
| 20260903230205 | 69 | 211 | 7.0 | 14.0 | 0.00 | 0.00 | 0.00 | 80 | 1013.8 |
| 20260903225204 | 69 | 213 | 8.0 | 14.0 | 0.00 | 0.00 | 0.00 | 79 | 1014.0 |
| 20260903224704 | 69 | 205 | 8.0 | 14.0 | 0.00 | 0.00 | 0.00 | 79 | 1014.0 |
| 20260903224204 | 69 | 177 | 7.0 | 14.0 | 0.00 | 0.00 | 0.00 | 79 | 1014.1 |
| 20260903223704 | 69 | 179 | 7.0 | 15.0 | 0.00 | 0.00 | 0.00 | 79 | 1014.0 |
| 20260903223204 | 69 | 211 | 7.0 | 15.0 | 0.00 | 0.00 | 0.00 | 79 | 1014.1 |
| 20260903222705 | 69 | 183 | 7.0 | 15.0 | 0.00 | 0.00 | 0.00 | 80 | 1014.1 |
| 20260903222205 | 69 | 267 | 8.0 | 14.0 | 0.00 | 0.00 | 0.00 | 80 | 1014.1 |
| 20260903221704 | 69 | 207 | 8.0 | 15.0 | 0.00 | 0.00 | 0.00 | 80 | 1014.2 |
| 20260903220704 | 68 | 183 | 8.0 | 15.0 | 0.00 | 0.00 | 0.00 | 80 | 1014.3 |
| 20260903220205 | 68 | 182 | 8.0 | 15.0 | 0.00 | 0.00 | 0.00 | 79 | 1014.4 |
| 20260903214704 | 69 | 232 | 6.0 | 12.0 | 0.00 | 0.00 | 0.00 | 77 | 1014.5 |
| 20260903213704 | 69 | 208 | 6.0 | 10.0 | 0.00 | 0.00 | 0.00 | 79 | 1014.6 |
| 20260903213204 | 69 | 255 | 5.0 | 14.0 | 0.00 | 0.00 | 0.00 | 80 | 1014.7 |
| 20260903212704 | 68 | 189 | 7.0 | 20.0 | 0.00 | 0.00 | 0.00 | 81 | 1014.7 |
| 20260903212205 | 67 | 182 | 8.0 | 20.0 | 0.00 | 0.00 | 0.00 | 81 | 1014.7 |
| 20260903211205 | 67 | 203 | 9.0 | 17.0 | 0.00 | 0.00 | 0.00 | 80 | 1014.9 |
| 20260903210704 | 67 | 205 | 10.0 | 17.0 | 0.00 | 0.00 | 0.00 | 80 | 1014.9 |
| 20260903210204 | 67 | 186 | 9.0 | 17.0 | 0.00 | 0.00 | 0.00 | 79 | 1015.0 |
| 20260903205704 | 67 | 210 | 7.0 | 13.0 | 0.00 | 0.00 | 0.00 | 78 | 1015.0 |
| 20260903205204 | 68 | 243 | 7.0 | 13.0 | 0.00 | 0.00 | 0.00 | 78 | 1015.1 |
| 20260903204705 | 67 | 205 | 7.0 | 13.0 | 0.00 | 0.00 | 0.00 | 78 | 1015.0 |
| 20260903204205 | 68 | 166 | 6.0 | 10.0 | 0.00 | 0.00 | 0.00 | 77 | 1015.0 |
| 20260903203704 | 68 | 217 | 6.0 | 11.0 | 0.00 | 0.00 | 0.00 | 76 | 1015.1 |
| 20260903203205 | 68 | 211 | 5.0 | 14.0 | 0.00 | 0.00 | 0.00 | 77 | 1015.0 |
| 20260903202705 | 68 | 188 | 6.0 | 14.0 | 0.00 | 0.00 | 0.00 | 77 | 1015.2 |
| 20260903201704 | 67 | 178 | 8.0 | 14.0 | 0.00 | 0.00 | 0.00 | 77 | 1015.1 |
| 20260903200704 | 68 | 212 | 7.0 | 11.0 | 0.00 | 0.00 | 0.00 | 75 | 1015.2 |
| 20260903195704 | 69 | 245 | 5.0 | 11.0 | 0.00 | 0.00 | 0.00 | 77 | 1015.3 |
| 20260903194705 | 67 | 196 | 6.0 | 13.0 | 0.00 | 0.00 | 0.00 | 78 | 1015.5 |
| 20260903193204 | 67 | 218 | 7.0 | 14.0 | 0.00 | 0.00 | 0.00 | 78 | 1015.6 |
| 20260903192705 | 67 | 182 | 8.0 | 14.0 | 0.00 | 0.00 | 0.00 | 78 | 1015.5 |
| 20260903192204 | 67 | 199 | 6.0 | 12.0 | 0.00 | 0.00 | 0.00 | 77 | 1015.7 |
| 20260903191204 | 68 | 188 | 5.0 | 9.0 | 0.00 | 0.00 | 0.00 | 75 | 1015.7 |
| 20260903190704 | 69 | 207 | 4.0 | 10.0 | 0.00 | 0.00 | 0.00 | 76 | 1015.8 |
| 20260903185705 | 67 | 184 | 5.0 | 9.0 | 0.00 | 0.00 | 0.00 | 76 | 1016.0 |
| 20260903184705 | 68 | 186 | 4.0 | 9.0 | 0.00 | 0.00 | 0.00 | 75 | 1016.2 |
| 20260903184205 | 68 | 196 | 4.0 | 8.0 | 0.00 | 0.00 | 0.00 | 75 | 1016.2 |
| 20260903183705 | 67 | 235 | 4.0 | 8.0 | 0.00 | 0.00 | 0.00 | 76 | 1016.2 |
| 20260903183204 | 67 | 235 | 4.0 | 8.0 | 0.00 | 0.00 | 0.00 | 76 | 1016.2 |
| 20260903182704 | 67 | 236 | 4.0 | 8.0 | 0.00 | 0.00 | 0.00 | 77 | 1016.4 |
| 20260903182204 | 67 | 182 | 4.0 | 8.0 | 0.00 | 0.00 | 0.00 | 78 | 1016.4 |
| 20260903181705 | 67 | 182 | 4.0 | 8.0 | 0.00 | 0.00 | 0.00 | 78 | 1016.3 |
| 20260903181204 | 66 | 110 | 4.0 | 8.0 | 0.00 | 0.00 | 0.00 | 79 | 1016.3 |
| 20260903180205 | 65 | 186 | 5.0 | 9.0 | 0.00 | 0.00 | 0.00 | 79 | 1016.3 |
| 20260903175704 | 65 | 178 | 5.0 | 10.0 | 0.00 | 0.00 | 0.00 | 79 | 1016.2 |
| 20260903174705 | 65 | 160 | 4.0 | 8.0 | 0.00 | 0.00 | 0.00 | 79 | 1016.2 |
| 20260903174204 | 65 | 126 | 4.0 | 8.0 | 0.00 | 0.00 | 0.00 | 79 | 1016.1 |
| 20260903173704 | 65 | 151 | 4.0 | 8.0 | 0.00 | 0.00 | 0.00 | 79 | 1016.2 |
| 20260903173204 | 65 | 181 | 4.0 | 8.0 | 0.00 | 0.00 | 0.00 | 79 | 1016.3 |
| 20260903172705 | 65 | 143 | 4.0 | 8.0 | 0.00 | 0.00 | 0.00 | 79 | 1016.3 |
| 20260903172204 | 65 | 193 | 3.0 | 8.0 | 0.00 | 0.00 | 0.00 | 80 | 1016.2 |
| 20260903171705 | 65 | 145 | 4.0 | 8.0 | 0.00 | 0.00 | 0.00 | 80 | 1016.2 |
| 20260903171204 | 65 | 127 | 3.0 | 9.0 | 0.00 | 0.00 | 0.00 | 81 | 1016.2 |
| 20260903170705 | 65 | 128 | 3.0 | 9.0 | 0.00 | 0.00 | 0.00 | 81 | 1016.2 |
| 20260903170205 | 65 | 172 | 3.0 | 9.0 | 0.00 | 0.00 | 0.00 | 81 | 1016.3 |
| 20260903165704 | 64 | 116 | 3.0 | 7.0 | 0.00 | 0.00 | 0.00 | 82 | 1016.4 |
| 20260903165204 | 64 | 134 | 3.0 | 5.0 | 0.00 | 0.00 | 0.00 | 83 | 1016.3 |
| 20260903164705 | 63 | 143 | 3.0 | 5.0 | 0.00 | 0.00 | 0.00 | 83 | 1016.2 |
| 20260903164205 | 63 | 190 | 3.0 | 7.0 | 0.00 | 0.00 | 0.00 | 84 | 1016.3 |
| 20260903162705 | 63 | 126 | 4.0 | 8.0 | 0.00 | 0.00 | 0.00 | 85 | 1016.5 |
| 20260903162204 | 62 | 138 | 3.0 | 7.0 | 0.00 | 0.00 | 0.00 | 85 | 1016.5 |
| 20260903161705 | 62 | 113 | 3.0 | 7.0 | 0.00 | 0.00 | 0.00 | 86 | 1016.5 |
| 20260903161204 | 62 | 180 | 4.0 | 7.0 | 0.00 | 0.00 | 0.00 | 87 | 1016.6 |
| 20260903160704 | 62 | 126 | 2.0 | 5.0 | 0.00 | 0.00 | 0.00 | 88 | 1016.7 |
| 20260903160205 | 62 | 117 | 0.0 | 3.0 | 0.00 | 0.00 | 0.00 | 89 | 1016.7 |
| 20260903155704 | 61 | 142 | 0.0 | 3.0 | 0.00 | 0.00 | 0.00 | 89 | 1016.8 |
| 20260903155204 | 61 | 202 | 0.0 | 3.0 | 0.00 | 0.00 | 0.00 | 90 | 1016.7 |
| 20260903154704 | 60 | 72 | 0.0 | 0.0 | 0.00 | 0.00 | 0.00 | 90 | 1016.7 |
| 20260903154204 | 60 | 72 | 0.0 | 0.0 | 0.00 | 0.00 | 0.00 | 91 | 1016.7 |
| 20260903153204 | 59 | 298 | 0.0 | 3.0 | 0.00 | 0.00 | 0.00 | 91 | 1016.7 |
| 20260903152704 | 58 | 19 | 0.0 | 3.0 | 0.00 | 0.00 | 0.00 | 91 | 1016.6 |
| 20260903152205 | 58 | 5 | 0.0 | 4.0 | 0.00 | 0.00 | 0.00 | 91 | 1016.7 |
| 20260903151704 | 57 | 51 | 0.0 | 4.0 | 0.00 | 0.00 | 0.00 | 91 | 1016.6 |
| 20260903151205 | 57 | 58 | 0.0 | 4.0 | 0.00 | 0.00 | 0.00 | 92 | 1016.7 |
| 20260903150204 | 56 | 331 | 0.0 | 4.0 | 0.00 | 0.00 | 0.00 | 92 | 1016.8 |
| 20260903145705 | 56 | 20 | 1.0 | 4.0 | 0.00 | 0.00 | 0.00 | 92 | 1016.8 |
| 20260903145204 | 55 | 40 | 1.0 | 4.0 | 0.00 | 0.00 | 0.00 | 92 | 1016.7 |
| 20260903144705 | 55 | 41 | 1.0 | 3.0 | 0.00 | 0.00 | 0.00 | 92 | 1016.6 |
| 20260903144204 | 55 | 351 | 1.0 | 3.0 | 0.00 | 0.00 | 0.00 | 92 | 1016.7 |
| 20260903143204 | 55 | 5 | 1.0 | 3.0 | 0.00 | 0.00 | 0.00 | 92 | 1016.6 |
| 20260903142705 | 55 | 5 | 1.0 | 4.0 | 0.00 | 0.00 | 0.00 | 92 | 1016.6 |
| 20260903142205 | 54 | 0 | 1.0 | 4.0 | 0.00 | 0.00 | 0.00 | 92 | 1016.5 |
| 20260903141704 | 54 | 332 | 1.0 | 4.0 | 0.00 | 0.00 | 0.00 | 92 | 1016.5 |
| 20260903140704 | 54 | 355 | 1.0 | 4.0 | 0.00 | 0.00 | 0.00 | 92 | 1016.4 |
| 20260903140204 | 54 | 325 | 1.0 | 4.0 | 0.00 | 0.00 | 0.00 | 92 | 1016.4 |
| 20260903135705 | 54 | 345 | 2.0 | 4.0 | 0.00 | 0.00 | 0.00 | 92 | 1016.3 |
| 20260903135204 | 54 | 14 | 2.0 | 4.0 | 0.00 | 0.00 | 0.00 | 92 | 1016.3 |
| 20260903134205 | 54 | 355 | 1.0 | 3.0 | 0.00 | 0.00 | 0.00 | 92 | 1016.3 |
| 20260903133705 | 54 | 332 | 1.0 | 2.0 | 0.00 | 0.00 | 0.00 | 92 | 1016.3 |
| 20260903133205 | 54 | 10 | 0.0 | 3.0 | 0.00 | 0.00 | 0.00 | 92 | 1016.3 |
| 20260903132705 | 54 | 16 | 0.0 | 4.0 | 0.00 | 0.00 | 0.00 | 92 | 1016.2 |
| 20260903132204 | 54 | 16 | 1.0 | 4.0 | 0.00 | 0.00 | 0.00 | 92 | 1016.3 |
| 20260903131704 | 54 | 337 | 1.0 | 4.0 | 0.00 | 0.00 | 0.00 | 92 | 1016.1 |
| 20260903131205 | 54 | 24 | 1.0 | 4.0 | 0.00 | 0.00 | 0.00 | 92 | 1016.1 |
| 20260903130704 | 54 | 36 | 1.0 | 4.0 | 0.00 | 0.00 | 0.00 | 92 | 1016.1 |
| 20260903130204 | 54 | 46 | 1.0 | 4.0 | 0.00 | 0.00 | 0.00 | 92 | 1016.1 |
| 20260903125704 | 54 | 9 | 1.0 | 4.0 | 0.00 | 0.00 | 0.00 | 92 | 1016.1 |
| 20260903124704 | 54 | 15 | 1.0 | 3.0 | 0.00 | 0.00 | 0.00 | 91 | 1016.2 |
| 20260903124205 | 54 | 25 | 1.0 | 0.0 | 0.00 | 0.00 | 0.00 | 91 | 1016.3 |
| 20260903123704 | 54 | 337 | 0.0 | 0.0 | 0.00 | 0.00 | 0.00 | 91 | 1016.5 |
| 20260903123205 | 54 | 337 | 0.0 | 1.0 | 0.00 | 0.00 | 0.00 | 91 | 1016.4 |
| 20260903122704 | 54 | 337 | 0.0 | 3.0 | 0.00 | 0.00 | 0.00 | 91 | 1016.5 |
| 20260903122204 | 54 | 337 | 0.0 | 4.0 | 0.00 | 0.00 | 0.00 | 91 | 1016.4 |
| 20260903121705 | 54 | 336 | 1.0 | 4.0 | 0.00 | 0.00 | 0.00 | 91 | 1016.4 |
| 20260903121204 | 54 | 336 | 1.0 | 4.0 | 0.00 | 0.00 | 0.00 | 91 | 1016.4 |
| 20260903120704 | 54 | 333 | 1.0 | 3.0 | 0.00 | 0.00 | 0.00 | 91 | 1016.4 |
| 20260903115705 | 54 | 5 | 1.0 | 3.0 | 0.00 | 0.00 | 0.00 | 91 | 1016.5 |
| 20260903115204 | 54 | 325 | 1.0 | 3.0 | 0.00 | 0.00 | 0.00 | 91 | 1016.5 |
| 20260903114704 | 54 | 0 | 1.0 | 3.0 | 0.00 | 0.00 | 0.00 | 91 | 1016.5 |
| 20260903114205 | 54 | 355 | 0.0 | 3.0 | 0.00 | 0.00 | 0.00 | 91 | 1016.5 |
| 20260903113704 | 54 | 21 | 0.0 | 0.0 | 0.00 | 0.00 | 0.00 | 91 | 1016.5 |